FW2671 Weather Reports


time (UTC)temp
F
wind
direction
speed
knots
gust
knots
rain 1hr
in
rain 24hr
in
rain mn
in
humidity
%
barometer
mb
20260903042850 78 275 0.0 0.0 0.00 0.00 0.00 85 1011.5
20260903035848 79 275 0.0 0.0 0.00 0.00 0.00 82 1011.5
20260903034847 79 275 0.0 0.0 0.00 0.00 0.00 81 1011.6
20260903033846 79 275 0.0 0.0 0.00 0.00 0.00 81 1011.5
20260903032845 79 275 0.0 0.0 0.00 0.00 0.00 81 1011.7
20260903031844 79 275 0.0 0.0 0.00 0.00 0.00 80 1011.7
20260903030843 80 275 0.0 0.0 0.00 0.00 0.00 80 1011.9
20260903025843 80 275 0.0 0.0 0.00 0.00 0.00 79 1011.8
20260903024842 81 275 0.0 0.0 0.00 0.00 0.00 78 1011.9
20260903023841 81 275 0.0 0.0 0.00 0.00 0.00 78 1011.8
20260903021839 82 275 0.0 0.0 0.00 0.00 0.00 76 1011.9
20260903020908 83 275 0.0 0.0 0.00 0.00 0.00 75 1011.9
20260903015907 83 275 0.0 0.0 0.00 0.00 0.00 74 1011.8
20260903014907 83 275 0.0 0.0 0.00 0.00 0.00 73 1011.8
20260903013907 83 275 0.0 0.0 0.00 0.00 0.00 72 1011.7
20260903012904 84 275 0.0 0.0 0.00 0.00 0.00 69 1011.7
20260903011903 84 275 0.0 0.0 0.00 0.00 0.00 67 1011.7
20260903010904 85 275 0.0 0.0 0.00 0.00 0.00 66 1011.4
20260903004901 86 275 0.0 0.0 0.00 0.00 0.00 64 1011.1
20260903002859 87 275 0.0 0.0 0.00 0.00 0.00 60 1010.8
20260903001859 88 275 0.0 0.0 0.00 0.00 0.00 58 1011.1
20260903000858 89 275 0.0 0.0 0.00 0.00 0.00 57 1011.1
20260902235856 89 275 0.0 0.0 0.00 0.00 0.00 56 1011.0
20260902234855 90 275 0.0 0.0 0.00 0.00 0.00 54 1011.1
20260902233855 91 275 0.0 0.0 0.00 0.00 0.00 54 1011.1
20260902232854 91 275 0.0 0.0 0.00 0.00 0.00 53 1011.1
20260902231853 92 275 0.0 0.0 0.00 0.00 0.00 51 1011.1
20260902230852 92 275 0.0 0.0 0.00 0.00 0.00 51 1011.2
20260902225852 93 275 0.0 0.9 0.00 0.00 0.00 50 1011.1
20260902224850 93 275 0.0 0.9 0.00 0.00 0.00 50 1011.2
20260902223849 93 275 0.0 3.5 0.00 0.00 0.00 48 1011.2
20260902222848 94 275 0.0 1.7 0.00 0.00 0.00 48 1011.3
20260902221848 94 275 0.0 1.7 0.00 0.00 0.00 47 1011.4
20260902220847 94 273 0.0 4.3 0.00 0.00 0.00 48 1011.4
20260902215846 95 287 0.0 0.9 0.00 0.00 0.00 48 1011.5
20260902214845 95 287 0.0 1.7 0.00 0.00 0.00 48 1011.5
20260902212843 96 288 0.0 3.5 0.00 0.00 0.00 47 1011.6
20260902211842 96 293 0.0 3.5 0.00 0.00 0.00 47 1011.7
20260902210841 97 179 0.0 4.3 0.00 0.00 0.00 47 1011.7
20260902205840 97 290 1.7 2.6 0.00 0.00 0.00 46 1011.8
20260902204839 97 229 0.0 1.7 0.00 0.00 0.00 46 1011.7
20260902203838 97 269 0.0 1.7 0.00 0.00 0.00 44 1011.8
20260902201907 98 284 0.0 0.9 0.00 0.00 0.00 45 1012.1
20260902200906 98 284 0.0 1.7 0.00 0.00 0.00 45 1012.2
20260902195905 98 316 0.0 1.7 0.00 0.00 0.00 44 1012.3
20260902194904 98 238 0.0 1.7 0.00 0.00 0.00 45 1012.4
20260902192902 97 224 0.0 3.5 0.00 0.00 0.00 48 1012.6
20260902191902 97 105 0.0 1.7 0.00 0.00 0.00 47 1012.6
20260902190901 97 292 0.0 1.7 0.00 0.00 0.00 48 1012.7
20260902184859 97 221 0.0 1.7 0.00 0.00 0.00 48 1012.9
20260902183858 96 163 0.0 1.7 0.00 0.00 0.00 51 1013.0
20260902182857 96 169 0.0 4.3 0.00 0.00 0.00 50 1012.9
20260902181856 95 236 0.0 2.6 0.00 0.00 0.00 51 1013.0
20260902180855 95 196 0.9 2.6 0.00 0.00 0.00 51 1013.0
20260902175854 95 194 0.0 2.6 0.00 0.00 0.00 51 1013.2
20260902173852 96 343 0.0 3.5 0.00 0.00 0.00 50 1013.4
20260902172851 96 306 0.0 6.1 0.00 0.00 0.00 50 1013.6
20260902170850 95 240 0.0 1.7 0.00 0.00 0.00 50 1013.9
20260902164848 95 238 0.0 2.6 0.00 0.00 0.00 54 1014.1
20260902163847 95 233 0.0 1.7 0.00 0.00 0.00 54 1014.1
20260902161845 94 146 0.0 0.9 0.00 0.00 0.00 57 1014.2
20260902160844 94 144 0.0 1.7 0.00 0.00 0.00 55 1014.4
20260902155843 94 138 0.0 0.9 0.00 0.00 0.00 54 1014.4
20260902154843 94 135 0.0 0.9 0.00 0.00 0.00 56 1014.5
20260902153842 94 134 0.0 0.0 0.00 0.00 0.00 56 1014.4
20260902152841 93 134 0.0 0.0 0.00 0.00 0.00 57 1014.4
20260902150909 91 134 0.0 0.9 0.00 0.00 0.00 59 1014.3
20260902145838 90 134 0.0 0.9 0.00 0.00 0.00 61 1014.2
20260902144907 90 134 0.0 0.9 0.00 0.00 0.00 63 1014.2
20260902143906 88 134 0.0 0.9 0.00 0.00 0.00 66 1014.1
20260902141905 86 134 0.0 0.0 0.00 0.00 0.00 69 1014.2
20260902140904 85 134 0.0 0.0 0.00 0.00 0.00 72 1014.3
20260902135903 84 134 0.0 0.0 0.00 0.00 0.00 74 1014.1
20260902134902 83 134 0.0 0.0 0.00 0.00 0.00 75 1014.2
20260902133901 81 134 0.0 0.9 0.00 0.00 0.00 78 1014.0
20260902132900 79 134 0.0 0.9 0.00 0.00 0.00 83 1014.0
20260902130858 76 134 0.0 0.0 0.00 0.00 0.00 90 1013.9
20260902125857 75 134 0.0 0.9 0.00 0.00 0.00 91 1013.9
20260902123856 73 134 0.0 0.0 0.00 0.00 0.00 91 1013.7
20260902122855 73 134 0.0 0.0 0.00 0.00 0.00 91 1013.7
20260902121854 73 134 0.0 0.0 0.00 0.00 0.00 91 1013.6
20260902120853 72 134 0.0 0.0 0.00 0.00 0.00 91 1013.6
20260902115852 72 134 0.0 0.0 0.00 0.00 0.00 91 1013.4
20260902112849 71 134 0.0 0.0 0.00 0.00 0.00 91 1013.3
20260902111848 71 134 0.0 0.0 0.00 0.00 0.00 91 1013.2
20260902110848 71 134 0.0 0.0 0.00 0.00 0.00 91 1013.1
20260902105847 71 134 0.0 0.0 0.00 0.00 0.00 91 1013.2
20260902104846 71 134 0.0 0.0 0.00 0.00 0.00 91 1013.2
20260902103845 71 134 0.0 0.0 0.00 0.00 0.00 91 1013.1
20260902102844 71 134 0.0 0.0 0.00 0.00 0.00 91 1013.0
20260902101843 72 134 0.0 0.0 0.00 0.00 0.00 91 1013.0
20260902100842 72 134 0.0 0.0 0.00 0.00 0.00 91 1012.9
20260902095841 72 134 0.0 0.0 0.00 0.00 0.00 91 1013.0
20260902094841 72 134 0.0 0.0 0.00 0.00 0.00 91 1013.0
20260902093839 72 134 0.0 0.0 0.00 0.00 0.00 91 1012.9
20260902092839 72 134 0.0 0.0 0.00 0.00 0.00 91 1012.8
20260902091908 72 134 0.0 0.0 0.00 0.00 0.00 91 1012.9
20260902090907 72 134 0.0 0.0 0.00 0.00 0.00 91 1012.7
20260902085836 73 134 0.0 0.0 0.00 0.00 0.00 91 1012.9
20260902084905 73 134 0.0 0.0 0.00 0.00 0.00 91 1012.9
20260902083904 73 134 0.0 0.0 0.00 0.00 0.00 91 1012.8
20260902082903 73 134 0.0 0.0 0.00 0.00 0.00 90 1012.8
20260902081902 73 134 0.0 0.0 0.00 0.00 0.00 90 1012.7
20260902075901 74 134 0.0 0.0 0.00 0.00 0.00 91 1012.8
20260902074900 74 134 0.0 0.0 0.00 0.00 0.00 91 1012.7
20260902073859 74 134 0.0 0.0 0.00 0.00 0.00 90 1012.7
20260902072858 74 134 0.0 0.0 0.00 0.00 0.00 90 1012.7
20260902071857 74 134 0.0 0.0 0.00 0.00 0.00 90 1012.6
20260902070856 74 134 0.0 0.0 0.00 0.00 0.00 90 1012.7
20260902064854 74 134 0.0 0.0 0.00 0.00 0.00 90 1012.6
20260902063853 74 134 0.0 0.0 0.00 0.00 0.00 90 1012.6
20260902060850 75 134 0.0 0.0 0.00 0.00 0.00 89 1013.0
20260902055850 75 134 0.0 0.0 0.00 0.00 0.00 89 1012.7
20260902054849 75 134 0.0 0.0 0.00 0.00 0.00 89 1012.8
20260902052847 75 134 0.0 0.0 0.00 0.00 0.00 89 1012.7
20260902051846 76 134 0.0 0.0 0.00 0.00 0.00 88 1012.7
20260902045845 76 134 0.0 0.0 0.00 0.00 0.00 87 1012.5
20260902044844 76 134 0.0 0.0 0.00 0.00 0.00 88 1012.6
20260902043843 77 134 0.0 0.0 0.00 0.00 0.00 87 1012.7